Caribou, ME

1:51 PM EDT on September 20, 2017 (GMT -0400)
Caribou Municipal

Weather History for KCAR - December, 2012

Change the Weather History Date:

Saturday, December 22, 2012

  Actual Average Record
Temperature  
Mean Temperature 33 °F 16 °F  
Max Temperature 39 °F 24 °F 50 °F (1973)
Min Temperature 26 °F 7 °F -21 °F (1980)
Degree Days  
Heating Degree Days 32 49  
Month to date heating degree days 889 989  
Since 1 July heating degree days 2721 3134  
Cooling Degree Days 0 0  
Month to date cooling degree days 0 0  
Year to date cooling degree days 279 180  
Moisture  
Dew Point 31 °F    
Average Humidity 84    
Maximum Humidity 92    
Minimum Humidity 76    
Precipitation  
Precipitation 0.08 in 0.10 in 0.90 in (1969)
Month to date precipitation 2.53 2.42  
Year to date precipitation 38.07 37.64  
Snow  
Snow 0.10 in 0.70 in 12.40 in (2008)
Month to date snowfall 17.7 15.6  
Since 1 July snowfall 19.3 27.8  
Snow Depth 8.00 in    
Sea Level Pressure  
Sea Level Pressure 29.22 in    
Wind  
Wind Speed 9 mph (South)    
Max Wind Speed 29 mph    
Max Gust Speed 41 mph    
Visibility 8 miles    
Events Rain , Snow    
T = Trace of Precipitation, MM = Missing Value Source: NWS Daily Summary

Daily Weather History Graph

Daily Weather History Graph

Search for Another Location

Airport or City:

Trip Planner

Search our weather history database for the weather conditions in past years. The results will help you decide how hot, cold, wet, or windy it might be!

Date:

Astronomy

Dec. 22, 2012 Rise Set
Actual Time 7:15 AM EST 3:46 PM EST
Civil Twilight 6:39 AM EST 4:22 PM EST
Nautical Twilight 6:01 AM EST 5:00 PM EST
Astronomical Twilight 5:23 AM EST 5:37 PM EST
Moon 12:13 PM EST (12/22) 1:44 AM EST (12/22)
Length of Visible Light 9h 42m
Length of Day
8h 31m
Waxing Gibbous, 73% of the Moon is Illuminated
Dec 22
Waxing Gibbous
Dec 28
Full
Jan 4
Last Quarter
Jan 11
New
Jan 18
First Quarter

Hourly Weather History & Observations

Time (EST) Temp. Windchill Dew Point Humidity Pressure Visibility Wind Dir Wind Speed Gust Speed Precip Events Conditions
12:12 AM 37.4 °F 26.1 °F 35.6 °F 93% 29.15 in 6.0 mi East 24.2 mph 36.8 mph 0.01 in Rain Light Rain
12:54 AM 37.9 °F 27.6 °F 34.0 °F 86% 29.16 in 6.0 mi East 20.7 mph 29.9 mph 0.02 in Rain Light Rain
1:54 AM 37.0 °F 28.5 °F 35.1 °F 93% 29.17 in 3.0 mi ESE 13.8 mph 23.0 mph 0.02 in Rain Light Rain
2:54 AM 37.9 °F 31.5 °F 36.0 °F 93% 29.17 in 10.0 mi ESE 9.2 mph - 0.02 in   Overcast
3:54 AM 37.0 °F 29.8 °F 34.0 °F 89% 29.16 in 10.0 mi East 10.4 mph - 0.00 in Rain Light Rain
4:16 AM 37.4 °F 34.9 °F 35.6 °F 93% 29.13 in 10.0 mi Variable 3.5 mph - 0.00 in   Overcast
4:54 AM 36.0 °F 31.1 °F 34.0 °F 93% 29.17 in 10.0 mi East 5.8 mph - 0.00 in   Overcast
5:12 AM 37.4 °F 32.1 °F 33.8 °F 87% 29.14 in 7.0 mi SE 6.9 mph - 0.00 in Rain Light Rain
5:37 AM 37.4 °F 30.3 °F 35.6 °F 93% 29.15 in 10.0 mi SE 10.4 mph - 0.01 in   Overcast
5:54 AM 37.9 °F 30.5 °F 36.0 °F 93% 29.18 in 10.0 mi SSE 11.5 mph - 0.01 in   Overcast
6:03 AM 39.2 °F 31.6 °F 35.6 °F 87% 29.16 in 10.0 mi SSE 12.7 mph - N/A   Overcast
6:54 AM 37.9 °F 30.9 °F 34.0 °F 86% 29.19 in 10.0 mi SSE 10.4 mph - N/A   Overcast
7:32 AM 37.4 °F 29.8 °F 33.8 °F 87% 29.18 in 10.0 mi SSE 11.5 mph - N/A   Overcast
7:54 AM 37.9 °F 30.0 °F 34.0 °F 86% 29.21 in 10.0 mi SSE 12.7 mph 20.7 mph N/A   Overcast
8:54 AM 37.0 °F 28.5 °F 34.0 °F 89% 29.24 in 10.0 mi South 13.8 mph 23.0 mph N/A   Overcast
9:03 AM 37.4 °F 28.5 °F 33.8 °F 87% 29.22 in 10.0 mi South 15.0 mph - N/A   Overcast
9:54 AM 37.0 °F 29.8 °F 33.1 °F 86% 29.25 in 10.0 mi South 10.4 mph - N/A   Overcast
10:23 AM 37.4 °F 31.4 °F 30.2 °F 75% 29.21 in 10.0 mi SSE 8.1 mph - N/A   Overcast
10:54 AM 37.9 °F 30.5 °F 32.0 °F 79% 29.23 in 10.0 mi South 11.5 mph - N/A   Overcast
11:24 AM 37.4 °F 30.3 °F 32.0 °F 81% 29.21 in 10.0 mi South 10.4 mph 18.4 mph N/A   Overcast
11:54 AM 37.0 °F 31.0 °F 32.0 °F 82% 29.23 in 10.0 mi SSE 8.1 mph - N/A   Overcast
12:54 PM 37.9 °F 32.7 °F 32.0 °F 79% 29.21 in 10.0 mi South 6.9 mph - N/A   Overcast
1:52 PM 37.4 °F 31.4 °F 32.0 °F 81% 29.18 in 10.0 mi SSE 8.1 mph - N/A   Mostly Cloudy
1:54 PM 37.9 °F 32.1 °F 30.9 °F 76% 29.21 in 10.0 mi SSE 8.1 mph - N/A   Mostly Cloudy
2:54 PM 37.9 °F 32.1 °F 30.9 °F 76% 29.21 in 10.0 mi SSE 8.1 mph - N/A   Overcast
3:40 PM 37.4 °F 31.4 °F 32.0 °F 81% 29.20 in 10.0 mi SSE 8.1 mph - 0.00 in Rain Light Rain
3:54 PM 36.0 °F 29.6 °F 32.0 °F 86% 29.23 in 10.0 mi SSE 8.1 mph - 0.00 in Rain Light Rain
4:54 PM 35.1 °F 30.1 °F 32.0 °F 89% 29.24 in 10.0 mi SSE 5.8 mph - 0.00 in   Overcast
5:42 PM 33.8 °F 30.8 °F 30.2 °F 87% 29.21 in 6.0 mi South 3.5 mph - 0.00 in Snow Light Snow
5:54 PM 34.0 °F 31.0 °F 32.0 °F 92% 29.24 in 9.0 mi South 3.5 mph - 0.00 in Snow Light Snow
6:17 PM 33.8 °F - 32.0 °F 93% 29.22 in 8.0 mi Calm Calm - 0.00 in Snow Light Snow
6:29 PM 33.8 °F - 32.0 °F 93% 29.22 in 8.0 mi Calm Calm - 0.00 in   Overcast
6:35 PM 33.8 °F - 32.0 °F 93% 29.22 in 8.0 mi Calm Calm - 0.00 in   Overcast
6:49 PM 33.8 °F 30.8 °F 32.0 °F 93% 29.22 in 6.0 mi South 3.5 mph - 0.00 in Snow Light Snow
6:50 PM 33.1 °F 30.0 °F 32.0 °F 96% 29.25 in 6.0 mi South 3.5 mph - 0.00 in Snow Light Snow
6:53 PM 33.8 °F - 32.0 °F 93% 29.22 in 5.0 mi Calm Calm - 0.00 in Snow Light Snow
7:20 PM 33.8 °F 29.6 °F 32.0 °F 93% 29.23 in 2.5 mi SSW 4.6 mph - 0.00 in Snow Light Snow
7:37 PM 33.8 °F 27.0 °F 30.2 °F 87% 29.24 in 3.0 mi WSW 8.1 mph - 0.00 in Snow Light Snow
7:51 PM 33.8 °F 27.7 °F 30.2 °F 87% 29.24 in 9.0 mi West 6.9 mph - 0.00 in   Overcast
7:54 PM 33.1 °F 25.5 °F 30.0 °F 89% 29.27 in 9.0 mi West 9.2 mph - 0.00 in   Overcast
8:23 PM 32.0 °F 22.5 °F 28.4 °F 87% 29.25 in 2.0 mi WSW 12.7 mph 18.4 mph 0.00 in Snow Light Snow
8:28 PM 32.0 °F 23.0 °F 28.4 °F 87% 29.25 in 1.5 mi West 11.5 mph - 0.00 in Snow Light Snow
8:49 PM 30.2 °F 21.3 °F 28.4 °F 93% 29.26 in 2.0 mi WSW 10.4 mph - 0.01 in Snow Light Snow
8:50 PM 30.9 °F 21.7 °F 28.0 °F 89% 29.29 in 2.0 mi WSW 11.5 mph - 0.01 in Snow Light Snow
9:04 PM 30.2 °F 21.3 °F 28.4 °F 93% 29.27 in 2.0 mi SW 10.4 mph - 0.00 in Snow Light Snow
9:28 PM 28.4 °F 18.0 °F 24.8 °F 86% 29.28 in 3.0 mi WSW 12.7 mph - 0.00 in Snow Light Snow
9:31 PM 28.4 °F 18.5 °F 24.8 °F 86% 29.28 in 4.0 mi WSW 11.5 mph - 0.00 in Snow Light Snow
9:54 PM 28.0 °F 17.0 °F 24.1 °F 85% 29.31 in 3.0 mi WSW 13.8 mph - 0.00 in Snow Light Snow
10:44 PM 26.6 °F 16.8 °F 21.2 °F 80% 29.30 in 4.0 mi WSW 10.4 mph - 0.00 in Snow Light Snow
10:54 PM 26.1 °F 14.5 °F 21.0 °F 81% 29.34 in 5.0 mi WSW 13.8 mph - 0.00 in Snow Light Snow
11:51 PM 26.6 °F 19.1 °F 21.2 °F 80% 29.30 in 9.0 mi West 6.9 mph - 0.00 in   Overcast
11:52 PM 26.6 °F 19.1 °F 21.2 °F 80% 29.30 in 9.0 mi West 6.9 mph - 0.00 in   Overcast
11:54 PM 26.1 °F 18.4 °F 21.0 °F 81% 29.33 in 9.0 mi West 6.9 mph - 0.00 in   Overcast